Weather in Bulatnikovo

Russia / Vladimir Oblast     55°41′14″N   41°45′31″E
temp.,
°C
wind,
m/s
gust,
m/s
humid.,
%
clouds,
%
prec.,
mm/h
press.,
hPa
HPBL,
m
19 september, sun
sun1900:00+2ene2385100 0.0 102651
03:00+2ene3686100 0.0 1026120
06:00+1ene3582100 0.0 1026100
09:00+6e4756100 0.0 1026471
12:00+9ese5646100 0.0 10251169
15:00+10e5641100 0.0 10241264
18:00+8ene4947100 0.0 1024417
21:00+6e51253100 0.0 1024450
20 september, mon
mon2000:00+6e61354100 0.0 1023508
03:00+6e61354100 0.0 1022573
06:00+5e61361100 0.1 1022690
09:00+4e71478100 1.1 1023907
12:00+4e81489100 2.1 1022862
15:00+5e71492100 3.4 1022915
18:00+6e71488100 1.3 10211063
21:00+6e61481100 1.8 1021984
21 september, tue
tue2100:00+7e71472100 0.0 1020862
03:00+6e71479100 0.3 1019785
06:00+5e61489100 0.9 1019715
09:00+6e61392100 1.9 1018735
12:00+8ese7118199 0.0 1018781
15:00+9ese6977100 0.0 1017879
18:00+8e51077100 0.3 1017718
21:00+7e51177100 1.5 1017562
22 september, wed
wed2200:00+6e51086100 0.1 1016515
03:00+6e51194100 1.3 1015566
06:00+6e51094100 2.1 1015606
09:00+6e4995100 4.0 1016506
12:00+7e3694100 0.3 1017431
15:00+9e4590100 0.3 1018485
18:00+8ene359397 0.0 1018285
21:00+7ne239774 0.0 1019113
23 september, thu
thu2300:00+7ene1297100 0.0 101889
03:00+7ne239790 0.0 101887
06:00+8ene2393100 0.0 101879
09:00+10ene2387100 0.0 1018283
12:00+12ene338073 0.0 1017531
15:00+14e347379 0.0 1016786
18:00+11e3691100 0.0 1015143
21:00+11ese3991100 0.2 1015302